GPS BIIF-8 (PRN 03)

Last updated on Thu Sep 10 2026 00:03:18 GMT+0000 (Coordinated Universal Time)

1 40294U 14068A 26251.68670480 -.00000075 00000+0 00000+0 0 9994 2 40294 57.0429 27.7450 0067120 73.7261 287.0115 2.00556470 86888
UTC large
Height (km)
Speed (km/s)
/
Latitude / Longitude
Inclination (degrees)
Orbital Period (minutes)
Azimuth
Elevation
Range (km)
Doppler Factor

Next 0 passes for location: London (51.5072 / 0.1276)

No passes found over London.
GPS BIIF-8 (PRN 03)